Weather Roundup
Issued by NWS

Home | Current Version | Previous Version | Graphics & Text | Print | Product List | Glossary Off
Versions: 1 2 3 4 5 6 7 8 9 10 11 12 13 14 15 16 17 18 19 20 21 22 23 24 25 26 27 28 29 30 31 32 33 34 35 36 37 38 39 40 41 42 43 44 45 46 47 48 49 50

721
NZUS93 KARX 241659
HRRWXR

CURRENT HOURLY OBSERVATIONS ACROSS
MUCH OF THE UPPER MISSISSIPPI VALLEY
NATIONAL WEATHER SERVICE LA CROSSE WI
1200 PM CDT MON JUL 24 2017


...SOUTHEAST MINNESOTA...


CITY           SKY/WX    TMP DP  RH WIND       PRES   REMARKS
ROCHESTER      PTSUNNY   69  60  73 E7        30.08F
ROCHESTER/MAYO PTSUNNY   70  57  64 E5        30.08S
WINONA         CLOUDY    68  57  68 SE7       30.09S
AUSTIN         CLOUDY    70  57  64 E3        30.07S
ALBERT LEA     CLOUDY    72  61  68 SE3       30.07S
DODGE CENTER   PTSUNNY   68  57  68 CALM      30.08S
PRESTON        CLOUDY    66  57  71 E6        30.09S
OWATONNA       CLOUDY    72  61  68 E6        30.07S
FARIBAULT      CLOUDY    70  61  73 E3        30.07S
$$

...ELSEWHERE IN MINNESOTA...


CITY           SKY/WX    TMP DP  RH WIND       PRES   REMARKS
MINNEAPOLIS    PTSUNNY   73  58  59 S7        30.06F
INTNL FALLS    FAIR      74  54  49 SE8       30.03F
DULUTH         FAIR      69  55  60 SE12      30.09S
RED WING       FAIR      73  55  53 S3        30.06S
REDWOOD FALLS  FAIR      73  61  65 SE10      30.03F
MANKATO        PTSUNNY   70  60  70 VRB6      30.06F
WORTHINGTON    FAIR      73  61  65 MISG      30.05F
FAIRMONT       FAIR      71  61  70 SE8       30.05F
$$

...SOUTHWEST WISCONSIN...


CITY           SKY/WX    TMP DP  RH WIND       PRES   REMARKS
LA CROSSE      CLOUDY    68  57  68 VRB3      30.08F
PRAIRIE DU CHI PTSUNNY   69  56  64 NE5       30.07S
BOSCOBEL       CLOUDY    71  57  61 CALM      30.08S
LONE ROCK      NOT AVBL
PLATTEVILLE    CLOUDY    69  60  73 NE3       30.09R
FORT MC COY    CLOUDY    68  56  66 E5        30.10S
MAUSTON-NEW LI CLOUDY    67  58  71 S6        30.09F
VIROQUA        CLOUDY    65  59  79 CALM      30.10S
WIS DELLS      CLOUDY    67  55  63 NE6       30.09S
$$

...ELSEWHERE IN WISCONSIN...


CITY           SKY/WX    TMP DP  RH WIND       PRES   REMARKS
MILWAUKEE      PTSUNNY   71  60  68 NE16G22   30.07R
MADISON        PTSUNNY   69  57  65 NE7       30.08S
GREEN BAY      FAIR      68  59  73 NE9G17    30.10R
EAU CLAIRE     NOT AVBL
BLACK RVR FLS  PTSUNNY   71  55  56 E6        30.09S
MEDFORD        FAIR      65  53  64 E5        30.11S
WAUSAU         FAIR      71  54  54 MISG      30.09S
WIS RAPIDS     PTSUNNY   72  56  57 NE3       30.11S
MARSHFIELD     PTSUNNY   69  55  60 VRB6      30.09S
RICE LAKE      FAIR      65  55  71 SE8       30.11F
$$

...NORTHEAST IOWA...


CITY           SKY/WX    TMP DP  RH WIND       PRES   REMARKS
WATERLOO       PTSUNNY   70  62  76 NE6       30.05S
DUBUQUE        CLOUDY    70  60  70 NE6       30.08R
DECORAH        CLOUDY    64  57  77 VRB5      30.08S
MASON CITY     CLOUDY    71  60  68 E6        30.09R
CHARLES CITY   CLOUDY    70  63  78 E6        30.08R
OELWEIN          N/A    N/A N/A N/A MISG        N/A
$$

...ELSEWHERE IN IOWA...


CITY           SKY/WX    TMP DP  RH WIND       PRES   REMARKS
DES MOINES     FAIR      80  59  48 NW6       30.03S
IOWA CITY      CLOUDY    75  66  73 NE9       30.06S
FORT DODGE     FAIR      73  61  64 E7        30.06S
MARSHALLTOWN   PTSUNNY   72  63  73 SE8       30.05S
CEDAR RAPIDS   CLOUDY    72  65  78 E7        30.05S
$$

...NORTHERN ILLINOIS...


CITY           SKY/WX    TMP DP  RH WIND       PRES   REMARKS
CHICAGO-OHARE  PTSUNNY   71  56  58 N13       30.04R
CHICAGO-MIDWAY CLOUDY    71  59  65 N14       30.03R
MOLINE         CLOUDY    72  64  76 NE9       30.04S
ROCKFORD       CLOUDY    73  59  61 NE13      30.07R
PEORIA         CLOUDY    72  65  78 NE7       30.03S
$$

NOTE: "FAIR" INDICATES FEW OR NO CLOUDS BELOW 12,000 FEET WITH NO
SIGNIFICANT WEATHER AND/OR OBSTRUCTIONS TO VISIBILITY. WIND
SPEEDS ARE IN MILES-PER-HOUR.




USA.gov is the U.S. government's official web portal to all federal, state and local government web resources and services.